Home > Weather > Konstanz > Past weeks

Flag for Germany Past Weather in Konstanz, Baden-Württemberg, Germany — Yesterday and Last 2 Weeks

Now
54 °F

Mostly cloudy.


Feels Like: 53 °F
Forecast: 42 / 70 °F
Wind: 5 mph from South

Location: Friedrichshafen Airport

Current Time: May 24, 2016 at 7:55:22 PM

Latest Report: May 24, 2016 at 7:20 PM


Visibility: N/A

Pressure: 29.98 "Hg

Humidity: 82%

Dew Point: 48 °F

Location of KonstanzLocation

Past Weather in Konstanz — Graph

°F

Konstanz Temperature Yesterday

Maximum temperature yesterday: 59 °F (at 1:20 AM)
Minimum temperature yesterday: 45 °F (at 9:50 AM)
Average temperature yesterday: 49 °F

High & Low Weather Summary for the Past Weeks

 TemperatureHumidityPressure
High81 °F (May 22, 2:20 PM)100% (May 12, 1:20 PM)30.18 "Hg (May 12, 1:20 PM)
Low37 °F (May 16, 6:20 AM)32% (May 22, 5:20 PM)29.47 "Hg (May 12, 12:50 AM)
Average54 °F79%29.89 "Hg
* Reported May 9 6:20 PM — May 24 6:20 PM, Konstanz, Weather by CustomWeather, © 2016

Note: Actual official high and low records may vary slightly from our data, if they occured in-between our weather recording intervals... More about our weather records

Advertising

Konstanz Weather History for the Previous 24 Hours

Scroll right to see more
 ConditionsComfort  
Time TempWeatherWind HumidityBarometerVisibility
6:20 PM
Tue, May 24
54 °FOvercast.3 mph77%29.98 "HgN/A
5:50 PM55 °FMostly cloudy.3 mph72%29.98 "HgN/A
5:20 PM55 °FOvercast.3 mph72%29.98 "HgN/A
4:50 PM55 °FMostly cloudy.3 mph72%29.98 "HgN/A
4:20 PM55 °FMore clouds than sun.3 mph72%29.98 "HgN/A
3:50 PM55 °FMostly cloudy.5 mph67%29.98 "HgN/A
3:20 PM55 °FOvercast.3 mph67%29.98 "HgN/A
2:50 PM54 °FOvercast.3 mph72%29.98 "HgN/A
2:20 PM54 °FOvercast.3 mph72%29.98 "HgN/A
1:50 PM54 °FMore clouds than sun.6 mph72%29.98 "HgN/A
1:20 PM54 °FMostly cloudy.8 mph77%30.01 "HgN/A
12:50 PM52 °FOvercast.7 mph82%30.01 "HgN/A
12:20 PM52 °FOvercast.7 mph82%30.01 "HgN/A
11:50 AM52 °FMostly cloudy.8 mph82%30.01 "HgN/A
11:20 AM52 °FMore clouds than sun.6 mph88%30.01 "HgN/A
10:50 AM50 °FOvercast.8 mph88%30.01 "HgN/A
10:20 AM50 °FOvercast.10 mph88%30.01 "HgN/A
9:50 AM50 °FSprinkles. Mostly cloudy.12 mph88%29.98 "HgN/A
9:20 AM50 °FMore clouds than sun.12 mph88%29.98 "HgN/A
8:50 AM50 °FMore clouds than sun.9 mph88%29.98 "HgN/A
8:20 AM48 °FMore clouds than sun.10 mph94%29.98 "HgN/A
7:50 AM48 °FMostly cloudy.8 mph94%29.98 "Hg5 mi
7:20 AM48 °FMostly cloudy.9 mph94%29.98 "HgN/A
6:50 AM48 °FCloudy.7 mph94%29.98 "HgN/A
6:20 AM48 °FMostly cloudy.7 mph94%29.98 "HgN/A
5:50 AM46 °FOvercast.8 mph100%29.98 "HgN/A
5:20 AM46 °FDrizzle. Overcast.6 mph93%29.98 "HgN/A
4:55 AM46 °FCool.7 mph100%29.98 "HgN/A
4:20 AM46 °FDrizzle. Low clouds.7 mph93%29.98 "HgN/A
3:55 AM46 °FSprinkles. Mostly cloudy.6 mph93%29.98 "HgN/A
3:20 AM46 °FSprinkles. Fog.9 mph93%29.98 "Hg2 mi
2:55 AM46 °FCool.10 mph93%29.98 "HgN/A
2:20 AM46 °FDrizzle. Overcast.10 mph93%29.98 "HgN/A
1:50 AM46 °FLight rain. Mostly cloudy.8 mph93%29.98 "HgN/A
1:20 AM46 °FLight rain. Mostly cloudy.8 mph93%29.98 "HgN/A
12:50 AM46 °FLight rain. Mostly cloudy.5 mph93%29.98 "HgN/A
12:20 AM46 °FLight rain. Mostly cloudy.7 mph93%30.01 "HgN/A
12:02 AM46 °FLight rain. Mostly cloudy.7 mph93%30.01 "HgN/A
11:20 PM
Mon, May 23
46 °FLight rain. Overcast.10 mph93%30.01 "HgN/A
10:50 PM46 °FLight rain. Overcast.12 mph93%30.01 "HgN/A
10:20 PM46 °FLight rain. Overcast.12 mph93%30.01 "HgN/A
9:50 PM46 °FLight rain. Mostly cloudy.10 mph100%30.01 "HgN/A
9:20 PM46 °FLight rain. Mostly cloudy.12 mph100%30.01 "Hg5 mi
8:50 PM48 °FLight rain. Cloudy.12 mph87%29.98 "HgN/A
8:20 PM48 °FLight rain. More clouds than sun.9 mph87%29.98 "Hg5 mi
7:50 PM48 °FLight rain. Mostly cloudy.9 mph87%29.98 "HgN/A
7:20 PM48 °FSprinkles. Mostly cloudy.9 mph87%29.98 "HgN/A
Weather by CustomWeather, © 2016

See weather overviewHow to use our weather pages